Fort Collins, CO

8:45 PM MST on December 10, 2019 (GMT -0700)
Fort Collins-Loveland Municipal

Weather History for KFNL - October, 2019

Change the Weather History Date:

Friday, October 11, 2019

  Actual Average Record
Temperature  
Mean Temperature 33 °F -  
Max Temperature 51 °F - 87 °F (1996)
Min Temperature 14 °F - 14 °F (2019)
Degree Days  
Heating Degree Days 32    
Month to date heating degree days 182  
Cooling Degree Days 0    
Month to date cooling degree days 0  
Moisture  
Dew Point 18 °F    
Average Humidity 58    
Maximum Humidity 92    
Minimum Humidity 24    
Precipitation  
Precipitation 0.00 in - 0.99 in (2005)
Snow  
Snow 0.00 in - - ()
Snow Depth 0.00 in    
Sea Level Pressure  
Sea Level Pressure 30.29 in    
Wind  
Wind Speed 6 mph (South)    
Max Wind Speed 13 mph    
Max Gust Speed -    
Visibility 10 miles    
Events      
T = Trace of Precipitation, MM = Missing Value Source: NWS Daily Summary

Daily Weather History Graph

Daily Weather History Graph

Search for Another Location

Airport or City:

Astronomy

Oct. 11, 2019 Rise Set
Actual Time 7:06 AM MDT 6:26 PM MDT
Civil Twilight 6:39 AM MDT 6:53 PM MDT
Nautical Twilight 6:07 AM MDT 7:25 PM MDT
Astronomical Twilight 5:35 AM MDT 7:56 PM MDT
Moon 5:57 PM MDT 4:48 AM MDT
Length of Visible Light 12h 14m
Length of Day
11h 19m
Waxing Gibbous, 96% of the Moon is Illuminated
Oct 11
Waxing Gibbous
Oct 13
Full
Oct 21
Last Quarter
Oct 27
New
Nov 4
First Quarter

Hourly Weather History & Observations

Time (MDT) Temp. Windchill Dew Point Humidity Pressure Visibility Wind Dir Wind Speed Gust Speed Precip Events Conditions
12:49 AM 19.4 °F 11.5 °F 17.6 °F 93% 30.26 in 10.0 mi SE 5.8 mph - N/A   Mostly Cloudy
1:56 AM 16.0 °F 5.3 °F 12.9 °F 88% 30.36 in 10.0 mi SSW 8.1 mph - N/A   Clear
2:56 AM 15.1 °F 4.2 °F 12.0 °F 88% 30.36 in 10.0 mi South 8.1 mph - N/A   Clear
3:56 AM 15.1 °F 6.4 °F 12.9 °F 91% 30.35 in 10.0 mi South 5.8 mph - N/A   Clear
4:56 AM 15.1 °F 6.4 °F 12.9 °F 91% 30.35 in 10.0 mi SSW 5.8 mph - N/A   Clear
5:42 AM 15.8 °F 8.6 °F 12.2 °F 86% 30.25 in 10.0 mi SSE 4.6 mph - N/A   Partly Cloudy
5:56 AM 15.1 °F 5.2 °F 12.9 °F 91% 30.38 in 10.0 mi South 6.9 mph - N/A   Partly Cloudy
6:56 AM 15.1 °F 1.1 °F 12.0 °F 88% 30.39 in 10.0 mi South 12.7 mph - N/A   Scattered Clouds
7:56 AM 18.0 °F 12.7 °F 15.1 °F 88% 30.39 in 10.0 mi SW 3.5 mph - N/A   Clear
8:56 AM 24.1 °F 19.7 °F 21.9 °F 91% 30.38 in 10.0 mi SSW 3.5 mph - N/A   Clear
9:56 AM 28.0 °F 21.7 °F 25.0 °F 88% 30.37 in 10.0 mi South 5.8 mph - N/A   Clear
10:56 AM 33.1 °F 27.7 °F 24.1 °F 70% 30.35 in 10.0 mi SSW 5.8 mph - N/A   Clear
11:56 AM 37.0 °F 32.4 °F 21.9 °F 54% 30.32 in 10.0 mi ESE 5.8 mph - N/A   Clear
12:56 PM 41.0 °F 36.4 °F 21.0 °F 45% 30.31 in 10.0 mi South 6.9 mph - N/A   Clear
1:56 PM 45.0 °F 41.8 °F 18.0 °F 34% 30.28 in 10.0 mi South 5.8 mph - N/A   Clear
2:56 PM 48.9 °F - 16.0 °F 27% 30.25 in 10.0 mi Variable 6.9 mph - N/A   Clear
3:56 PM 50.0 °F - 15.1 °F 25% 30.23 in 10.0 mi SSE 8.1 mph - N/A   Clear
4:56 PM 51.1 °F - 17.1 °F 26% 30.22 in 10.0 mi SSE 9.2 mph - N/A   Clear
5:56 PM 48.9 °F - 18.0 °F 29% 30.22 in 10.0 mi South 5.8 mph - N/A   Clear
6:56 PM 43.0 °F 38.8 °F 19.9 °F 40% 30.23 in 10.0 mi South 6.9 mph - N/A   Clear
7:56 PM 37.9 °F 32.7 °F 21.9 °F 53% 30.23 in 10.0 mi South 6.9 mph - N/A   Clear
8:56 PM 39.0 °F 36.8 °F 19.9 °F 46% 30.20 in 10.0 mi SSE 3.5 mph - N/A   Clear
9:56 PM 37.9 °F 34.4 °F 21.0 °F 51% 30.18 in 10.0 mi SSW 4.6 mph - N/A   Clear
10:56 PM 34.0 °F 28.8 °F 21.9 °F 61% 30.16 in 10.0 mi East 5.8 mph - N/A   Clear
11:56 PM 30.0 °F 25.2 °F 24.1 °F 79% 30.14 in 10.0 mi North 4.6 mph - N/A   Clear